START_TIME,STEP,MOV.,H8,t_acc.,H43,t_acc.,M25,t_acc.,H9,t_acc.
1981-08-30 21:01:10.800 ,0,0,,0,,0,,0,,0
1981-08-30 21:01:22.800 ,0,0,0.,12.0,0.,12.0,0.,12.0,0.,12.0
1981-08-30 21:01:18.000 ,0,0,0.,12.0,0.,12.0,0.,12.0,0.,12.0
1981-08-30 21:01:30.000 ,0,0,0.,12.0,0.,12.0,0.,12.0,0.,12.0
1981-08-30 21:01:42.000 ,5,0,0.,12.0,0.,12.0,0.,12.0,0.,12.0
1981-08-30 21:01:54.000 ,5,0,0.,12.0,0.,12.0,0.,12.0,0.,12.0
1981-08-30 21:02:06.000 ,5,0,0.,12.0,0.,12.0,0.,12.0,0.,12.0
1981-08-30 21:02:18.000 ,5,0,0.,12.0,0.,12.0,0.,12.0,0.,12.0
1981-08-30 21:02:30.000 ,4,0,0.,12.0,0.,12.0,0.,12.0,0.,12.0
1981-08-30 21:02:42.000 ,4,0,0.,12.0,0.,12.0,0.,12.0,0.,12.0
1981-08-30 21:02:54.000 ,4,0,0.,12.0,0.,12.0,0.,12.0,0.,12.0
1981-08-30 21:03:06.000 ,4,0,0.,12.0,0.,12.0,0.,12.0,0.,12.0
1981-08-30 21:03:18.000 ,3,0,0.,12.0,0.,12.0,0.,12.0,0.,12.0
1981-08-30 21:03:30.000 ,3,0,0.,12.0,0.,12.0,0.,12.0,0.,12.0
1981-08-30 21:03:42.000 ,3,0,0.,12.0,0.,12.0,0.,12.0,0.,12.0
1981-08-30 21:03:54.000 ,3,0,0.,12.0,0.,12.0,0.,12.0,0.,12.0
1981-08-30 21:04:06.000 ,2,0,0.,12.0,0.,12.0,0.,12.0,0.,12.0
1981-08-30 21:04:18.000 ,2,0,0.,12.0,0.,12.0,0.,12.0,0.,12.0
1981-08-30 21:04:30.000 ,2,0,0.,12.0,0.,12.0,0.,12.0,0.,12.0
1981-08-30 21:04:42.000 ,2,0,0.,12.0,0.,12.0,0.,12.0,0.,12.0
1981-08-30 21:04:54.000 ,1,0,0.,12.0,0.,12.0,0.,12.0,0.,12.0
1981-08-30 21:05:06.000 ,1,0,0.,12.0,0.,12.0,0.,12.0,0.,12.0
1981-08-30 21:05:18.000 ,1,0,0.,12.0,0.,12.0,0.,12.0,0.,12.0
1981-08-30 21:05:30.000 ,1,0,0.,12.0,0.,12.0,0.,12.0,0.,12.0
1981-08-30 21:05:42.000 ,0,0,0.,12.0,0.,12.0,0.,12.0,0.,12.0
1981-08-30 21:05:54.000 ,0,0,0.,12.0,0.,12.0,0.,12.0,0.,12.0
1981-08-30 21:06:06.000 ,0,0,0.,12.0,0.,12.0,0.,12.0,0.,12.0
1981-08-30 21:06:18.000 ,0,0,0.,12.0,0.,12.0,0.,12.0,0.,12.0
1981-08-30 21:06:30.000 ,0,0,0.,12.0,0.,12.0,0.,12.0,0.,12.0
1981-08-30 21:06:42.000 ,0,0,0.,12.0,0.,12.0,0.,12.0,0.,12.0
1981-08-30 21:06:54.000 ,0,0,0.,12.0,0.,12.0,0.,12.0,0.,12.0
1981-08-30 21:07:06.000 ,0,0,0.,12.0,0.,12.0,0.,12.0,0.,12.0
1981-08-30 21:07:18.000 ,1,0,0.,12.0,0.,12.0,0.,12.0,0.,12.0
1981-08-30 21:07:30.000 ,1,0,0.,12.0,0.,12.0,0.,12.0,0.,12.0
1981-08-30 21:07:42.000 ,1,0,0.,12.0,0.,12.0,0.,12.0,0.,12.0
1981-08-30 21:07:54.000 ,1,0,0.,12.0,0.,12.0,0.,12.0,0.,12.0
1981-08-30 21:08:06.000 ,2,0,0.,12.0,0.,12.0,0.,12.0,0.,12.0
1981-08-30 21:08:18.000 ,2,0,0.,12.0,0.,12.0,0.,12.0,0.,12.0
1981-08-30 21:08:30.000 ,2,0,0.,12.0,0.,12.0,0.,12.0,0.,12.0
1981-08-30 21:08:42.000 ,2,0,0.,12.0,0.,12.0,0.,12.0,0.,12.0
1981-08-30 21:08:54.000 ,3,0,0.,12.0,0.,12.0,0.,12.0,0.,12.0
1981-08-30 21:09:06.000 ,3,0,0.,12.0,0.,12.0,0.,12.0,0.,12.0
1981-08-30 21:09:18.000 ,4,0,0.,12.0,0.,12.0,0.,12.0,0.,12.0
1981-08-30 21:09:30.000 ,4,0,0.,12.0,0.,12.0,0.,12.0,0.,12.0
1981-08-30 21:09:42.000 ,5,0,0.,12.0,0.,12.0,0.,12.0,0.,12.0
1981-08-30 21:09:54.000 ,5,0,0.,12.0,0.,12.0,0.,12.0,0.,12.0
1981-08-30 21:10:06.000 ,6,0,0.,12.0,0.,12.0,0.,12.0,0.,12.0
1981-08-30 21:10:18.000 ,6,0,0.,12.0,0.,12.0,0.,12.0,0.,12.0
1981-08-30 21:10:30.000 ,7,0,0.,12.0,0.,12.0,0.,12.0,0.,12.0
1981-08-30 21:10:42.000 ,7,0,0.,12.0,0.,12.0,0.,12.0,0.,12.0
1981-08-30 21:10:54.000 ,7,0,0.,12.0,0.,12.0,0.,12.0,0.,12.0
1981-08-30 21:11:06.000 ,7,0,0.,12.0,0.,12.0,0.,12.0,0.,12.0
1981-08-30 21:11:18.000 ,6,0,0.,12.0,0.,12.0,0.,12.0,0.,12.0
1981-08-30 21:11:30.000 ,6,0,0.,12.0,0.,12.0,0.,12.0,0.,12.0
1981-08-30 21:11:42.000 ,5,0,0.,12.0,0.,12.0,0.,12.0,0.,12.0
1981-08-30 21:11:54.000 ,5,0,0.,12.0,0.,12.0,0.,12.0,0.,12.0
1981-08-30 21:12:06.000 ,4,0,0.,12.0,0.,12.0,0.,12.0,0.,12.0
1981-08-30 21:12:18.000 ,4,0,0.,12.0,0.,12.0,0.,12.0,0.,12.0
1981-08-30 21:12:30.000 ,3,0,0.,12.0,0.,12.0,0.,12.0,0.,12.0
1981-08-30 21:12:42.000 ,3,0,0.,12.0,0.,12.0,0.,12.0,0.,12.0
1981-08-30 21:12:54.000 ,2,0,0.,12.0,0.,12.0,0.,12.0,0.,12.0
1981-08-30 21:13:06.000 ,2,0,0.,12.0,0.,12.0,0.,12.0,0.,12.0
1981-08-30 21:13:18.000 ,1,0,0.,12.0,0.,12.0,0.,12.0,0.,12.0
1981-08-30 21:13:30.000 ,1,0,0.,12.0,0.,12.0,0.,12.0,0.,12.0
1981-08-30 21:13:42.000 ,0,0,0.,12.0,0.,12.0,0.,12.0,0.,12.0
1981-08-30 21:13:54.000 ,0,0,0.,12.0,0.,12.0,0.,12.0,0.,12.0
1981-08-30 21:14:06.000 ,0,0,0.,12.0,0.,12.0,0.,12.0,0.,12.0
1981-08-30 21:14:18.000 ,0,0,0.,12.0,0.,12.0,0.,12.0,0.,12.0
1981-08-30 21:14:30.000 ,1,0,0.,12.0,0.,12.0,0.,12.0,0.,12.0
1981-08-30 21:14:42.000 ,1,0,0.,12.0,0.,12.0,0.,12.0,0.,12.0
1981-08-30 21:14:54.000 ,2,0,0.,12.0,0.,12.0,0.,12.0,0.,12.0
1981-08-30 21:15:06.000 ,2,0,0.,12.0,0.,12.0,0.,12.0,0.,12.0
1981-08-30 21:15:18.000 ,3,0,0.,12.0,0.,12.0,0.,12.0,0.,12.0
1981-08-30 21:15:30.000 ,3,0,0.,12.0,0.,12.0,0.,12.0,0.,12.0
1981-08-30 21:15:42.000 ,3,0,0.,12.0,0.,12.0,0.,12.0,0.,12.0
1981-08-30 21:15:54.000 ,3,0,0.,12.0,0.,12.0,0.,12.0,0.,12.0
1981-08-30 21:16:06.000 ,4,0,0.,12.0,0.,12.0,0.,12.0,0.,12.0
1981-08-30 21:16:18.000 ,4,0,0.,12.0,0.,12.0,0.,12.0,0.,12.0
1981-08-30 21:16:30.000 ,4,0,0.,12.0,0.,12.0,0.,12.0,0.,12.0
1981-08-30 21:16:42.000 ,4,0,0.,12.0,0.,12.0,0.,12.0,0.,12.0
1981-08-30 21:16:54.000 ,5,0,0.,12.0,0.,12.0,0.,12.0,0.,12.0
1981-08-30 21:17:06.000 ,5,0,0.,12.0,0.,12.0,0.,12.0,0.,12.0
1981-08-30 21:17:18.000 ,5,0,0.,12.0,0.,12.0,0.,12.0,0.,12.0
1981-08-30 21:17:30.000 ,5,0,0.,12.0,0.,12.0,0.,12.0,0.,12.0
1981-08-30 21:17:42.000 ,6,0,0.,12.0,0.,12.0,0.,12.0,0.,12.0
1981-08-30 21:17:54.000 ,6,0,0.,12.0,0.,12.0,0.,12.0,0.,12.0
1981-08-30 21:18:06.000 ,6,0,0.,12.0,0.,12.0,0.,12.0,0.,12.0
1981-08-30 21:18:18.000 ,6,0,0.,12.0,0.,12.0,0.,12.0,0.,12.0
1981-08-30 21:18:30.000 ,7,0,0.,12.0,0.,12.0,0.,12.0,0.,12.0
1981-08-30 21:18:42.000 ,7,0,0.,12.0,0.,12.0,0.,12.0,0.,12.0
1981-08-30 21:18:54.000 ,7,0,0.,12.0,0.,12.0,0.,12.0,0.,12.0
1981-08-30 21:19:06.000 ,7,0,0.,12.0,0.,12.0,0.,12.0,0.,12.0
1981-08-30 21:19:18.000 ,7,0,0.,12.0,0.,12.0,0.,12.0,0.,12.0
1981-08-30 21:19:30.000 ,7,0,0.,12.0,0.,12.0,0.,12.0,0.,12.0
1981-08-30 21:19:42.000 ,7,0,0.,12.0,0.,12.0,0.,12.0,0.,12.0
1981-08-30 21:19:54.000 ,7,0,0.,12.0,0.,12.0,0.,12.0,0.,12.0
1981-08-30 21:20:06.000 ,6,0,0.,12.0,0.,12.0,0.,12.0,0.,12.0
1981-08-30 21:20:18.000 ,6,0,0.,12.0,0.,12.0,0.,12.0,0.,12.0
1981-08-30 21:20:30.000 ,6,0,0.,12.0,0.,12.0,0.,12.0,0.,12.0
1981-08-30 21:20:42.000 ,6,0,0.,12.0,0.,12.0,0.,12.0,0.,12.0
1981-08-30 21:20:54.000 ,5,0,0.,12.0,0.,12.0,0.,12.0,0.,12.0
1981-08-30 21:21:06.000 ,5,0,0.,12.0,0.,12.0,0.,12.0,0.,12.0
1981-08-30 21:21:18.000 ,5,0,0.,12.0,0.,12.0,0.,12.0,0.,12.0
1981-08-30 21:21:30.000 ,5,0,0.,12.0,0.,12.0,0.,12.0,0.,12.0
1981-08-30 21:21:42.000 ,4,0,0.,12.0,0.,12.0,0.,12.0,0.,12.0
1981-08-30 21:21:54.000 ,4,0,0.,12.0,0.,12.0,0.,12.0,0.,12.0
1981-08-30 21:22:06.000 ,4,0,0.,12.0,0.,12.0,0.,12.0,0.,12.0
1981-08-30 21:22:18.000 ,4,0,0.,12.0,0.,12.0,0.,12.0,0.,12.0
1981-08-30 21:22:30.000 ,3,0,0.,12.0,0.,12.0,0.,12.0,0.,12.0
1981-08-30 21:22:42.000 ,3,0,0.,12.0,0.,12.0,0.,12.0,0.,12.0
1981-08-30 21:22:54.000 ,3,0,0.,12.0,0.,12.0,0.,12.0,0.,12.0
1981-08-30 21:23:06.000 ,3,0,0.,12.0,0.,12.0,0.,12.0,0.,12.0
1981-08-30 21:23:18.000 ,2,0,0.,12.0,0.,12.0,0.,12.0,0.,12.0
1981-08-30 21:23:30.000 ,2,0,0.,12.0,0.,12.0,0.,12.0,0.,12.0
1981-08-30 21:23:42.000 ,2,0,0.,12.0,0.,12.0,0.,12.0,0.,12.0
1981-08-30 21:23:54.000 ,2,0,0.,12.0,0.,12.0,0.,12.0,0.,12.0
1981-08-30 21:24:06.000 ,1,0,0.,12.0,0.,12.0,0.,12.0,0.,12.0
1981-08-30 21:24:18.000 ,1,0,0.,12.0,0.,12.0,0.,12.0,0.,12.0
1981-08-30 21:24:30.000 ,1,0,0.,12.0,0.,12.0,0.,12.0,0.,12.0
1981-08-30 21:24:42.000 ,1,0,0.,12.0,0.,12.0,0.,12.0,0.,12.0
1981-08-30 21:24:54.000 ,0,0,0.,12.0,0.,12.0,0.,12.0,0.,12.0
1981-08-30 21:25:06.000 ,0,0,0.,12.0,0.,12.0,0.,12.0,0.,12.0
1981-08-30 21:25:18.000 ,0,0,0.,12.0,0.,12.0,0.,12.0,0.,12.0
1981-08-30 21:25:30.000 ,0,0,0.,12.0,0.,12.0,0.,12.0,0.,12.0
1981-08-30 21:25:42.000 ,0,0,0.,12.0,0.,12.0,0.,12.0,0.,12.0
1981-08-30 21:25:54.000 ,0,0,0.,12.0,0.,12.0,0.,12.0,0.,12.0
1981-08-30 21:26:06.000 ,0,0,0.,12.0,0.,12.0,0.,12.0,0.,12.0
1981-08-30 21:26:18.000 ,0,0,0.,12.0,0.,12.0,0.,12.0,0.,12.0
1981-08-30 21:26:30.000 ,1,0,0.,12.0,0.,12.0,0.,12.0,0.,12.0
1981-08-30 21:26:42.000 ,1,0,0.,12.0,0.,12.0,0.,12.0,0.,12.0
1981-08-30 21:26:54.000 ,1,0,0.,12.0,0.,12.0,0.,12.0,0.,12.0
1981-08-30 21:27:06.000 ,1,0,0.,12.0,0.,12.0,0.,12.0,0.,12.0
1981-08-30 21:27:18.000 ,2,0,0.,12.0,0.,12.0,0.,12.0,0.,12.0
1981-08-30 21:27:30.000 ,2,0,0.,12.0,0.,12.0,0.,12.0,0.,12.0
1981-08-30 21:27:42.000 ,2,0,0.,12.0,0.,12.0,0.,12.0,0.,12.0
1981-08-30 21:27:54.000 ,2,0,0.,12.0,0.,12.0,0.,12.0,0.,12.0
1981-08-30 21:28:06.000 ,3,0,0.,12.0,0.,12.0,0.,12.0,0.,12.0
1981-08-30 21:28:18.000 ,3,0,0.,12.0,0.,12.0,0.,12.0,0.,12.0
1981-08-30 21:28:30.000 ,4,0,0.,12.0,0.,12.0,0.,12.0,0.,12.0
1981-08-30 21:28:42.000 ,4,0,0.,12.0,0.,12.0,0.,12.0,0.,12.0
1981-08-30 21:28:54.000 ,5,0,0.,12.0,0.,12.0,0.,12.0,0.,12.0
1981-08-30 21:29:06.000 ,5,0,0.,12.0,0.,12.0,0.,12.0,0.,12.0
1981-08-30 21:29:18.000 ,6,0,0.,12.0,0.,12.0,0.,12.0,0.,12.0
1981-08-30 21:29:30.000 ,6,0,0.,12.0,0.,12.0,0.,12.0,0.,12.0
1981-08-30 21:29:42.000 ,7,0,0.,12.0,0.,12.0,0.,12.0,0.,12.0
1981-08-30 21:29:54.000 ,7,0,0.,12.0,0.,12.0,0.,12.0,0.,12.0
1981-08-30 21:30:06.000 ,7,0,0.,12.0,0.,12.0,0.,12.0,0.,12.0
1981-08-30 21:30:18.000 ,7,0,0.,12.0,0.,12.0,0.,12.0,0.,12.0
1981-08-30 21:30:30.000 ,6,0,0.,12.0,0.,12.0,0.,12.0,0.,12.0
1981-08-30 21:30:42.000 ,6,0,0.,12.0,0.,12.0,0.,12.0,0.,12.0
1981-08-30 21:30:54.000 ,5,0,0.,12.0,0.,12.0,0.,12.0,0.,12.0
1981-08-30 21:31:06.000 ,5,0,0.,12.0,0.,12.0,0.,12.0,0.,12.0
1981-08-30 21:31:18.000 ,4,0,0.,12.0,0.,12.0,0.,12.0,0.,12.0
1981-08-30 21:31:30.000 ,4,0,0.,12.0,0.,12.0,0.,12.0,0.,12.0
1981-08-30 21:31:42.000 ,3,0,0.,12.0,0.,12.0,0.,12.0,0.,12.0
1981-08-30 21:31:54.000 ,3,0,0.,12.0,0.,12.0,0.,12.0,0.,12.0
1981-08-30 21:32:06.000 ,2,0,0.,12.0,0.,12.0,0.,12.0,0.,12.0
1981-08-30 21:32:18.000 ,2,0,0.,12.0,0.,12.0,0.,12.0,0.,12.0
1981-08-30 21:32:30.000 ,1,0,0.,12.0,0.,12.0,0.,12.0,0.,12.0
1981-08-30 21:32:42.000 ,1,0,0.,12.0,0.,12.0,0.,12.0,0.,12.0
1981-08-30 21:32:54.000 ,0,0,0.,12.0,0.,12.0,0.,12.0,0.,12.0
1981-08-30 21:33:06.000 ,0,0,0.,12.0,0.,12.0,0.,12.0,0.,12.0
1981-08-30 21:33:18.000 ,0,0,0.,12.0,0.,12.0,0.,12.0,0.,12.0
1981-08-30 21:33:30.000 ,0,0,0.,12.0,0.,12.0,0.,12.0,0.,12.0
1981-08-30 21:33:42.000 ,1,0,0.,12.0,0.,12.0,0.,12.0,0.,12.0
1981-08-30 21:33:54.000 ,1,0,0.,12.0,0.,12.0,0.,12.0,0.,12.0
1981-08-30 21:34:06.000 ,2,0,0.,12.0,0.,12.0,0.,12.0,0.,12.0
1981-08-30 21:34:18.000 ,2,0,0.,12.0,0.,12.0,0.,12.0,0.,12.0
1981-08-30 21:34:30.000 ,3,0,0.,12.0,0.,12.0,0.,12.0,0.,12.0
1981-08-30 21:34:42.000 ,3,0,0.,12.0,0.,12.0,0.,12.0,0.,12.0
1981-08-30 21:34:54.000 ,3,0,0.,12.0,0.,12.0,0.,12.0,0.,12.0
1981-08-30 21:35:06.000 ,3,0,0.,12.0,0.,12.0,0.,12.0,0.,12.0
1981-08-30 21:35:18.000 ,4,0,0.,12.0,0.,12.0,0.,12.0,0.,12.0
1981-08-30 21:35:30.000 ,4,0,0.,12.0,0.,12.0,0.,12.0,0.,12.0
1981-08-30 21:35:42.000 ,4,0,0.,12.0,0.,12.0,0.,12.0,0.,12.0
1981-08-30 21:35:54.000 ,4,0,0.,12.0,0.,12.0,0.,12.0,0.,12.0
1981-08-30 21:36:06.000 ,5,0,0.,12.0,0.,12.0,0.,12.0,0.,12.0
1981-08-30 21:36:18.000 ,5,0,0.,12.0,0.,12.0,0.,12.0,0.,12.0
1981-08-30 21:36:30.000 ,5,0,0.,12.0,0.,12.0,0.,12.0,0.,12.0
1981-08-30 21:36:42.000 ,5,0,0.,12.0,0.,12.0,0.,12.0,0.,12.0
1981-08-30 21:36:54.000 ,6,0,0.,12.0,0.,12.0,0.,12.0,0.,12.0
1981-08-30 21:37:06.000 ,6,0,0.,12.0,0.,12.0,0.,12.0,0.,12.0
1981-08-30 21:37:18.000 ,6,0,0.,12.0,0.,12.0,0.,12.0,0.,12.0
1981-08-30 21:37:30.000 ,6,0,0.,12.0,0.,12.0,0.,12.0,0.,12.0
1981-08-30 21:37:42.000 ,7,0,0.,12.0,0.,12.0,0.,12.0,0.,12.0
1981-08-30 21:37:54.000 ,7,0,0.,12.0,0.,12.0,0.,12.0,0.,12.0
1981-08-30 21:38:06.000 ,7,0,0.,12.0,0.,12.0,0.,12.0,0.,12.0
1981-08-30 21:38:18.000 ,7,0,0.,12.0,0.,12.0,0.,12.0,0.,12.0
1981-08-30 21:38:30.000 ,7,0,0.,12.0,0.,12.0,0.,12.0,0.,12.0
1981-08-30 21:38:42.000 ,7,0,0.,12.0,0.,12.0,0.,12.0,0.,12.0
1981-08-30 21:38:54.000 ,7,0,0.,12.0,0.,12.0,0.,12.0,0.,12.0
1981-08-30 21:39:06.000 ,7,0,0.,12.0,0.,12.0,0.,12.0,0.,12.0
1981-08-30 21:39:18.000 ,6,0,0.,12.0,0.,12.0,0.,12.0,0.,12.0
1981-08-30 21:39:30.000 ,6,0,0.,12.0,0.,12.0,0.,12.0,0.,12.0
1981-08-30 21:39:42.000 ,6,0,0.,12.0,0.,12.0,0.,12.0,0.,12.0
1981-08-30 21:39:54.000 ,6,0,0.,12.0,0.,12.0,0.,12.0,0.,12.0
1981-08-30 21:40:06.000 ,5,0,0.,12.0,0.,12.0,0.,12.0,0.,12.0
1981-08-30 21:40:18.000 ,5,0,0.,12.0,0.,12.0,0.,12.0,0.,12.0
1981-08-30 21:40:30.000 ,5,0,0.,12.0,0.,12.0,0.,12.0,0.,12.0
1981-08-30 21:40:42.000 ,5,0,0.,12.0,0.,12.0,0.,12.0,0.,12.0
1981-08-30 21:40:54.000 ,4,0,0.,12.0,0.,12.0,0.,12.0,0.,12.0
1981-08-30 21:41:06.000 ,4,0,0.,12.0,0.,12.0,0.,12.0,0.,12.0
1981-08-30 21:41:18.000 ,4,0,0.,12.0,0.,12.0,0.,12.0,0.,12.0
1981-08-30 21:41:30.000 ,4,0,0.,12.0,0.,12.0,0.,12.0,0.,12.0
1981-08-30 21:41:42.000 ,3,0,0.,12.0,0.,12.0,0.,12.0,0.,12.0
1981-08-30 21:41:54.000 ,3,0,0.,12.0,0.,12.0,0.,12.0,0.,12.0
1981-08-30 21:42:06.000 ,3,0,0.,12.0,0.,12.0,0.,12.0,0.,12.0
1981-08-30 21:42:18.000 ,3,0,0.,12.0,0.,12.0,0.,12.0,0.,12.0
1981-08-30 21:42:30.000 ,0,0,0.,12.0,0.,12.0,0.,12.0,0.,12.0
1981-08-30 21:42:42.000 ,0,0,0.,12.0,0.,12.0,0.,12.0,0.,12.0
1981-08-30 21:42:54.000 ,0,0,1.,12.0,0.,12.0,0.,12.0,0.,12.0
1981-08-30 21:43:06.000 ,0,0,0.,12.0,0.,12.0,0.,12.0,0.,12.0
1981-08-30 21:43:18.000 ,1,0,0.,12.0,0.,12.0,0.,12.0,0.,12.0
1981-08-30 21:43:30.000 ,1,0,0.,12.0,0.,12.0,0.,12.0,0.,12.0
1981-08-30 21:43:42.000 ,1,0,0.,12.0,0.,12.0,0.,12.0,0.,12.0
1981-08-30 21:43:54.000 ,1,0,0.,12.0,0.,12.0,0.,12.0,0.,12.0
1981-08-30 21:44:06.000 ,0,0,0.,12.0,0.,12.0,0.,12.0,0.,12.0
1981-08-30 21:44:18.000 ,0,0,0.,12.0,0.,12.0,0.,12.0,0.,12.0
1981-08-30 21:44:30.000 ,0,0,0.,12.0,0.,12.0,0.,12.0,0.,12.0
1981-08-30 21:44:42.000 ,0,0,0.,12.0,0.,12.0,0.,12.0,0.,12.0
1981-08-30 21:44:54.000 ,0,0,0.,12.0,0.,12.0,0.,12.0,0.,12.0
1981-08-30 21:45:06.000 ,0,0,0.,12.0,0.,12.0,0.,12.0,0.,12.0
1981-08-30 21:45:18.000 ,0,0,0.,12.0,0.,12.0,0.,12.0,0.,12.0
1981-08-30 21:45:30.000 ,0,0,0.,12.0,0.,12.0,0.,12.0,0.,12.0
1981-08-30 21:45:42.000 ,1,0,0.,12.0,0.,12.0,0.,12.0,0.,12.0
1981-08-30 21:45:54.000 ,1,0,0.,12.0,0.,12.0,0.,12.0,0.,12.0
1981-08-30 21:46:06.000 ,1,0,0.,12.0,0.,12.0,0.,12.0,0.,12.0
1981-08-30 21:46:18.000 ,1,0,0.,12.0,0.,12.0,0.,12.0,0.,12.0
1981-08-30 21:46:30.000 ,2,0,0.,12.0,0.,12.0,0.,12.0,0.,12.0
1981-08-30 21:46:42.000 ,2,0,0.,12.0,0.,12.0,0.,12.0,0.,12.0
1981-08-30 21:46:54.000 ,2,0,0.,12.0,0.,12.0,0.,12.0,0.,12.0
1981-08-30 21:47:06.000 ,2,0,0.,12.0,0.,12.0,0.,12.0,0.,12.0
1981-08-30 21:47:18.000 ,3,0,0.,12.0,0.,12.0,0.,12.0,0.,12.0
1981-08-30 21:47:30.000 ,3,0,0.,12.0,0.,12.0,0.,12.0,0.,12.0
1981-08-30 21:47:42.000 ,4,0,0.,12.0,0.,12.0,0.,12.0,0.,12.0
1981-08-30 21:47:54.000 ,4,0,0.,12.0,0.,12.0,0.,12.0,0.,12.0
1981-08-30 21:48:06.000 ,5,0,0.,12.0,0.,12.0,0.,12.0,0.,12.0
1981-08-30 21:48:18.000 ,5,0,0.,12.0,0.,12.0,0.,12.0,0.,12.0
1981-08-30 21:48:30.000 ,6,0,0.,12.0,0.,12.0,0.,12.0,0.,12.0
1981-08-30 21:48:42.000 ,6,0,0.,12.0,0.,12.0,0.,12.0,0.,12.0
1981-08-30 21:48:54.000 ,7,0,0.,12.0,0.,12.0,0.,12.0,0.,12.0
1981-08-30 21:49:06.000 ,7,0,0.,12.0,0.,12.0,0.,12.0,0.,12.0
1981-08-30 21:49:18.000 ,7,0,0.,12.0,0.,12.0,0.,12.0,0.,12.0
1981-08-30 21:49:30.000 ,7,0,0.,12.0,0.,12.0,0.,12.0,0.,12.0
1981-08-30 21:49:42.000 ,6,0,0.,12.0,0.,12.0,0.,12.0,0.,12.0
1981-08-30 21:49:54.000 ,6,0,0.,12.0,0.,12.0,0.,12.0,0.,12.0
1981-08-30 21:50:06.000 ,5,0,0.,12.0,0.,12.0,0.,12.0,0.,12.0
1981-08-30 21:50:18.000 ,5,0,0.,12.0,0.,12.0,0.,12.0,0.,12.0
1981-08-30 21:50:30.000 ,4,0,0.,12.0,0.,12.0,0.,12.0,0.,12.0
1981-08-30 21:50:42.000 ,4,0,0.,12.0,0.,12.0,0.,12.0,0.,12.0
1981-08-30 21:50:54.000 ,3,0,0.,12.0,0.,12.0,0.,12.0,0.,12.0
1981-08-30 21:51:06.000 ,3,0,0.,12.0,0.,12.0,0.,12.0,0.,12.0
1981-08-30 21:51:18.000 ,2,0,0.,12.0,0.,12.0,0.,12.0,0.,12.0
1981-08-30 21:51:30.000 ,2,0,0.,12.0,0.,12.0,0.,12.0,0.,12.0
1981-08-30 21:51:42.000 ,1,0,0.,12.0,0.,12.0,0.,12.0,0.,12.0
1981-08-30 21:51:54.000 ,1,0,0.,12.0,0.,12.0,0.,12.0,0.,12.0
1981-08-30 21:52:06.000 ,0,0,0.,12.0,0.,12.0,0.,12.0,0.,12.0
1981-08-30 21:52:18.000 ,0,0,0.,12.0,0.,12.0,0.,12.0,0.,12.0
1981-08-30 21:52:30.000 ,0,0,0.,12.0,0.,12.0,0.,12.0,0.,12.0
1981-08-30 21:52:42.000 ,0,0,0.,12.0,0.,12.0,0.,12.0,0.,12.0
1981-08-30 21:52:54.000 ,1,0,0.,12.0,0.,12.0,0.,12.0,0.,12.0
1981-08-30 21:53:06.000 ,1,0,0.,12.0,0.,12.0,0.,12.0,0.,12.0
1981-08-30 21:53:18.000 ,2,0,0.,12.0,0.,12.0,0.,12.0,0.,12.0
1981-08-30 21:53:30.000 ,2,0,0.,12.0,0.,12.0,0.,12.0,0.,12.0
1981-08-30 21:53:42.000 ,3,0,0.,12.0,0.,12.0,0.,12.0,0.,12.0
1981-08-30 21:53:54.000 ,3,0,0.,12.0,0.,12.0,0.,12.0,0.,12.0
1981-08-30 21:54:06.000 ,3,0,0.,12.0,0.,12.0,0.,12.0,0.,12.0
1981-08-30 21:54:18.000 ,3,0,0.,12.0,0.,12.0,0.,12.0,0.,12.0
1981-08-30 21:54:30.000 ,4,0,0.,12.0,0.,12.0,0.,12.0,0.,12.0
1981-08-30 21:54:42.000 ,4,0,0.,12.0,0.,12.0,0.,12.0,0.,12.0
1981-08-30 21:54:54.000 ,4,0,0.,12.0,0.,12.0,0.,12.0,0.,12.0
1981-08-30 21:55:06.000 ,4,0,0.,12.0,0.,12.0,0.,12.0,0.,12.0
1981-08-30 21:55:18.000 ,5,0,0.,12.0,0.,12.0,0.,12.0,0.,12.0
1981-08-30 21:55:30.000 ,5,0,0.,12.0,0.,12.0,0.,12.0,0.,12.0
1981-08-30 21:55:42.000 ,5,0,0.,12.0,0.,12.0,0.,12.0,0.,12.0
1981-08-30 21:55:54.000 ,5,0,0.,12.0,0.,12.0,0.,12.0,0.,12.0
1981-08-30 21:56:06.000 ,6,0,0.,12.0,0.,12.0,0.,12.0,0.,12.0
1981-08-30 21:56:18.000 ,6,0,0.,12.0,0.,12.0,0.,12.0,0.,12.0
1981-08-30 21:56:30.000 ,6,0,0.,12.0,0.,12.0,0.,12.0,0.,12.0
1981-08-30 21:56:42.000 ,6,0,0.,12.0,0.,12.0,0.,12.0,0.,12.0
1981-08-30 21:56:54.000 ,7,0,0.,12.0,0.,12.0,0.,12.0,0.,12.0
1981-08-30 21:57:06.000 ,7,0,0.,12.0,0.,12.0,0.,12.0,0.,12.0
1981-08-30 21:57:18.000 ,7,0,0.,12.0,0.,12.0,0.,12.0,0.,12.0
1981-08-30 21:57:30.000 ,7,0,0.,12.0,0.,12.0,0.,12.0,0.,12.0
1981-08-30 21:57:42.000 ,7,0,0.,12.0,0.,12.0,0.,12.0,0.,12.0
1981-08-30 21:57:54.000 ,7,0,0.,12.0,0.,12.0,0.,12.0,0.,12.0
1981-08-30 21:58:06.000 ,7,0,0.,12.0,0.,12.0,0.,12.0,0.,12.0
1981-08-30 21:58:18.000 ,7,0,0.,12.0,0.,12.0,0.,12.0,0.,12.0
1981-08-30 21:58:30.000 ,6,0,0.,12.0,0.,12.0,0.,12.0,0.,12.0
1981-08-30 21:58:42.000 ,6,0,0.,12.0,0.,12.0,0.,12.0,0.,12.0
1981-08-30 21:58:54.000 ,6,0,0.,12.0,0.,12.0,0.,12.0,0.,12.0
1981-08-30 21:59:06.000 ,6,0,0.,12.0,0.,12.0,0.,12.0,0.,12.0
1981-08-30 21:59:18.000 ,5,0,0.,12.0,0.,12.0,0.,12.0,0.,12.0
1981-08-30 21:59:30.000 ,5,0,0.,12.0,0.,12.0,0.,12.0,0.,12.0
1981-08-30 21:59:42.000 ,5,0,0.,12.0,0.,12.0,0.,12.0,0.,12.0
1981-08-30 21:59:54.000 ,5,0,0.,12.0,0.,12.0,0.,12.0,0.,12.0
1981-08-30 22:00:06.000 ,4,0,0.,12.0,0.,12.0,0.,12.0,0.,12.0
1981-08-30 22:00:18.000 ,4,0,0.,12.0,0.,12.0,0.,12.0,0.,12.0
1981-08-30 22:00:30.000 ,4,0,0.,12.0,0.,12.0,0.,12.0,0.,12.0
1981-08-30 22:00:42.000 ,4,0,0.,12.0,0.,12.0,0.,12.0,0.,12.0
1981-08-30 22:00:54.000 ,3,0,0.,12.0,0.,12.0,0.,12.0,0.,12.0
1981-08-30 22:01:06.000 ,3,0,0.,12.0,0.,12.0,0.,12.0,0.,12.0
1981-08-30 22:01:18.000 ,3,0,0.,12.0,0.,12.0,0.,12.0,0.,12.0
1981-08-30 22:01:30.000 ,3,0,0.,12.0,0.,12.0,0.,12.0,0.,12.0
1981-08-30 22:01:42.000 ,2,0,0.,12.0,0.,12.0,0.,12.0,0.,12.0
1981-08-30 22:01:54.000 ,2,0,0.,12.0,0.,12.0,0.,12.0,0.,12.0
1981-08-30 22:02:06.000 ,2,0,0.,12.0,0.,12.0,0.,12.0,0.,12.0
1981-08-30 22:02:18.000 ,2,0,0.,12.0,0.,12.0,0.,12.0,0.,12.0
1981-08-30 22:02:30.000 ,1,0,0.,12.0,0.,12.0,0.,12.0,0.,12.0
1981-08-30 22:02:42.000 ,1,0,0.,12.0,0.,12.0,0.,12.0,0.,12.0
1981-08-30 22:02:54.000 ,1,0,0.,12.0,0.,12.0,0.,12.0,0.,12.0
1981-08-30 22:03:06.000 ,1,0,0.,12.0,0.,12.0,0.,12.0,0.,12.0
1981-08-30 22:03:18.000 ,0,0,0.,12.0,0.,12.0,0.,12.0,0.,12.0
1981-08-30 22:03:30.000 ,0,0,0.,12.0,0.,12.0,0.,12.0,0.,12.0
1981-08-30 22:03:42.000 ,0,0,0.,12.0,0.,12.0,0.,12.0,0.,12.0
1981-08-30 22:03:54.000 ,0,0,0.,12.0,0.,12.0,0.,12.0,0.,12.0
1981-08-30 22:04:06.000 ,0,0,0.,12.0,0.,12.0,0.,12.0,0.,12.0
1981-08-30 22:04:18.000 ,0,0,0.,12.0,0.,12.0,0.,12.0,0.,12.0
1981-08-30 22:04:30.000 ,0,0,0.,12.0,0.,12.0,0.,12.0,0.,12.0
1981-08-30 22:04:42.000 ,0,0,0.,12.0,0.,12.0,0.,12.0,0.,12.0
1981-08-30 22:04:54.000 ,1,0,0.,12.0,0.,12.0,0.,12.0,0.,12.0
1981-08-30 22:05:06.000 ,1,0,0.,12.0,0.,12.0,0.,12.0,0.,12.0
1981-08-30 22:05:18.000 ,1,0,0.,12.0,0.,12.0,0.,12.0,0.,12.0
1981-08-30 22:05:30.000 ,1,0,0.,12.0,0.,12.0,0.,12.0,0.,12.0
1981-08-30 22:05:42.000 ,2,0,0.,12.0,0.,12.0,0.,12.0,0.,12.0
1981-08-30 22:05:54.000 ,2,0,0.,12.0,0.,12.0,0.,12.0,0.,12.0
1981-08-30 22:06:06.000 ,2,0,0.,12.0,0.,12.0,0.,12.0,0.,12.0
1981-08-30 22:06:18.000 ,2,0,0.,12.0,0.,12.0,0.,12.0,0.,12.0
1981-08-30 22:06:30.000 ,3,0,0.,12.0,0.,12.0,0.,12.0,0.,12.0
1981-08-30 22:06:42.000 ,3,0,0.,12.0,0.,12.0,0.,12.0,0.,12.0
1981-08-30 22:06:54.000 ,4,0,0.,12.0,0.,12.0,0.,12.0,0.,12.0
1981-08-30 22:07:06.000 ,4,0,0.,12.0,0.,12.0,0.,12.0,0.,12.0
1981-08-30 22:07:18.000 ,5,0,0.,12.0,0.,12.0,0.,12.0,0.,12.0
1981-08-30 22:07:30.000 ,5,0,0.,12.0,0.,12.0,0.,12.0,0.,12.0
1981-08-30 22:07:42.000 ,6,0,0.,12.0,0.,12.0,0.,12.0,0.,12.0
1981-08-30 22:07:54.000 ,6,0,0.,12.0,0.,12.0,0.,12.0,0.,12.0
1981-08-30 22:08:06.000 ,7,0,0.,12.0,0.,12.0,0.,12.0,0.,12.0
1981-08-30 22:08:18.000 ,7,0,0.,12.0,0.,12.0,0.,12.0,0.,12.0
1981-08-30 22:08:30.000 ,7,0,0.,12.0,0.,12.0,0.,12.0,0.,12.0
1981-08-30 22:08:42.000 ,7,0,0.,12.0,0.,12.0,0.,12.0,0.,12.0
1981-08-30 22:08:54.000 ,6,0,0.,12.0,0.,12.0,0.,12.0,0.,12.0
1981-08-30 22:09:06.000 ,6,0,0.,12.0,0.,12.0,0.,12.0,0.,12.0
1981-08-30 22:09:18.000 ,5,0,0.,12.0,0.,12.0,0.,12.0,0.,12.0
1981-08-30 22:09:30.000 ,5,0,0.,12.0,0.,12.0,0.,12.0,0.,12.0
1981-08-30 22:09:42.000 ,4,0,0.,12.0,0.,12.0,0.,12.0,0.,12.0
1981-08-30 22:09:54.000 ,4,0,0.,12.0,1.,12.0,0.,12.0,0.,12.0
1981-08-30 22:10:06.000 ,3,0,0.,12.0,0.,12.0,0.,12.0,0.,12.0
1981-08-30 22:10:18.000 ,3,0,0.,12.0,0.,12.0,0.,12.0,0.,12.0
1981-08-30 22:10:30.000 ,2,0,0.,12.0,0.,12.0,0.,12.0,0.,12.0
1981-08-30 22:10:42.000 ,2,0,0.,12.0,0.,12.0,0.,12.0,0.,12.0
1981-08-30 22:10:54.000 ,1,0,0.,12.0,0.,12.0,0.,12.0,0.,12.0
1981-08-30 22:11:06.000 ,1,0,0.,12.0,0.,12.0,0.,12.0,0.,12.0
1981-08-30 22:11:18.000 ,0,0,0.,12.0,0.,12.0,0.,12.0,0.,12.0
1981-08-30 22:11:30.000 ,0,0,0.,12.0,0.,12.0,0.,12.0,0.,12.0
1981-08-30 22:11:42.000 ,0,0,0.,12.0,0.,12.0,0.,12.0,0.,12.0
1981-08-30 22:11:54.000 ,0,0,0.,12.0,0.,12.0,0.,12.0,0.,12.0
1981-08-30 22:12:06.000 ,1,0,0.,12.0,0.,12.0,0.,12.0,0.,12.0
1981-08-30 22:12:18.000 ,1,0,0.,12.0,0.,12.0,0.,12.0,0.,12.0
1981-08-30 22:12:30.000 ,2,0,0.,12.0,0.,12.0,0.,12.0,0.,12.0
1981-08-30 22:12:42.000 ,2,0,0.,12.0,0.,12.0,0.,12.0,0.,12.0
1981-08-30 22:12:54.000 ,3,0,0.,12.0,0.,12.0,0.,12.0,0.,12.0
1981-08-30 22:13:06.000 ,3,0,0.,12.0,0.,12.0,0.,12.0,0.,12.0
1981-08-30 22:13:18.000 ,3,0,0.,12.0,0.,12.0,0.,12.0,0.,12.0
1981-08-30 22:13:30.000 ,3,0,0.,12.0,0.,12.0,0.,12.0,0.,12.0
1981-08-30 22:13:42.000 ,4,0,0.,12.0,0.,12.0,0.,12.0,0.,12.0
1981-08-30 22:13:54.000 ,4,0,0.,12.0,0.,12.0,0.,12.0,0.,12.0
1981-08-30 22:14:06.000 ,4,0,0.,12.0,0.,12.0,0.,12.0,0.,12.0
1981-08-30 22:14:18.000 ,4,0,0.,12.0,0.,12.0,0.,12.0,0.,12.0
1981-08-30 22:14:30.000 ,5,0,0.,12.0,0.,12.0,0.,12.0,0.,12.0
1981-08-30 22:14:42.000 ,5,0,0.,12.0,0.,12.0,0.,12.0,0.,12.0
1981-08-30 22:14:54.000 ,5,0,0.,12.0,0.,12.0,0.,12.0,0.,12.0
1981-08-30 22:15:06.000 ,5,0,0.,12.0,0.,12.0,0.,12.0,0.,12.0
1981-08-30 22:15:18.000 ,6,0,0.,12.0,0.,12.0,0.,12.0,0.,12.0
1981-08-30 22:15:30.000 ,6,0,0.,12.0,0.,12.0,0.,12.0,0.,12.0
1981-08-30 22:15:42.000 ,6,0,0.,12.0,0.,12.0,0.,12.0,0.,12.0
1981-08-30 22:15:54.000 ,6,0,0.,12.0,0.,12.0,0.,12.0,0.,12.0
1981-08-30 22:16:06.000 ,7,0,0.,12.0,0.,12.0,0.,12.0,0.,12.0
1981-08-30 22:16:18.000 ,7,0,0.,12.0,0.,12.0,0.,12.0,0.,12.0
1981-08-30 22:16:30.000 ,7,0,0.,12.0,0.,12.0,0.,12.0,0.,12.0
1981-08-30 22:16:42.000 ,7,0,0.,12.0,0.,12.0,0.,12.0,0.,12.0
1981-08-30 22:16:54.000 ,7,0,0.,12.0,0.,12.0,0.,12.0,0.,12.0
1981-08-30 22:17:06.000 ,7,0,0.,12.0,0.,12.0,0.,12.0,0.,12.0
1981-08-30 22:17:18.000 ,7,0,0.,12.0,0.,12.0,0.,12.0,0.,12.0
1981-08-30 22:17:30.000 ,7,0,0.,12.0,0.,12.0,0.,12.0,0.,12.0
1981-08-30 22:17:42.000 ,6,0,0.,12.0,0.,12.0,0.,12.0,0.,12.0
1981-08-30 22:17:54.000 ,6,0,0.,12.0,0.,12.0,0.,12.0,0.,12.0